Date,TemperatureHighF,TemperatureAvgF,TemperatureLowF,DewpointHighF,DewpointAvgF,DewpointLowF,HumidityHigh,HumidityAvg,HumidityLow,PressureMaxIn,PressureMinIn,WindSpeedMaxMPH,WindSpeedAvgMPH,GustSpeedMaxMPH,PrecipitationSumIn
2014-1-1,36.9,28.2,14.6,24.5,21.0,10.6,85,74,59,30.23,30.03,21,5,21,0.00
2014-1-2,23.1,11.7,0.6,9.1,3.1,-3.8,82,69,49,30.54,30.28,15,4,19,0.12
2014-1-3,36.1,21.1,-1.8,24.0,12.1,-6.2,85,69,59,30.54,29.85,22,8,25,0.01
2014-1-4,47.1,32.4,18.8,33.2,23.4,14.7,84,70,56,30.06,29.80,22,6,25,0.01
2014-1-5,18.8,13.2,5.8,14.5,6.5,-3.5,85,75,57,30.51,30.01,29,10,29,0.00
2014-1-6,9.1,-0.7,-10.8,-3.6,-11.0,-17.7,76,61,48,30.64,30.53,12,5,24,0.03
2014-1-7,37.4,31.1,18.3,20.2,17.2,6.8,69,56,48,30.28,30.14,11,5,24,0.01
2014-1-8,31.9,24.9,19.3,20.1,16.8,12.1,84,71,59,30.39,30.24,16,4,16,0.00
2014-1-9,29.3,24.4,18.9,26.4,20.4,12.2,90,85,73,30.37,30.11,8,1,12,0.00
2014-1-10,46.7,38.6,33.7,45.3,37.1,31.6,95,94,92,30.05,29.52,12,3,13,0.02
2014-1-11,50.4,37.7,31.3,40.3,33.2,28.9,95,85,60,29.93,29.62,19,6,22,0.01
2014-1-12,65.2,50.9,32.8,37.3,32.6,28.0,84,53,33,29.91,29.49,35,8,35,0.00
2014-1-13,54.9,42.6,34.4,35.5,30.5,24.4,88,64,36,29.85,29.57,11,5,21,0.00
2014-1-14,51.3,40.1,27.1,33.8,23.6,12.1,76,54,27,30.23,29.77,22,9,33,0.00
2014-1-15,37.1,26.7,16.1,18.7,11.6,2.2,79,55,23,30.29,29.96,15,5,25,0.00
2014-1-16,50.7,39.9,30.1,29.5,23.6,12.9,79,54,34,29.99,29.77,40,10,40,0.00
2014-1-17,35.7,23.8,16.7,14.1,7.9,0.6,77,52,33,30.19,30.08,18,7,32,0.00
2014-1-18,54.0,35.0,20.7,33.6,20.3,7.5,79,56,37,30.15,29.74,29,10,42,0.00
2014-1-19,58.9,37.5,18.6,29.6,22.7,14.3,84,60,28,30.15,29.83,30,7,30,0.00
2014-1-20,58.1,40.2,24.4,33.2,26.6,20.3,88,60,36,30.12,29.86,40,4,40,0.00
2014-1-21,25.8,16.6,6.2,16.0,2.4,-3.7,76,55,31,30.52,30.24,18,6,35,0.00
2014-1-22,41.6,28.4,17.8,19.7,10.9,2.8,70,50,22,30.42,30.13,22,6,28,0.00
2014-1-23,21.2,10.3,4.2,-0.5,-3.5,-5.6,68,54,33,30.88,30.55,13,6,29,0.00
2014-1-24,39.0,23.1,6.1,15.8,3.6,-2.5,68,46,26,30.75,29.89,24,10,37,0.00
2014-1-25,50.1,39.3,28.5,34.4,19.7,0.9,74,48,15,30.02,29.79,32,8,32,0.00
2014-1-26,63.6,46.4,32.7,34.5,28.1,4.4,75,52,27,29.97,29.65,50,8,50,0.00
2014-1-27,22.9,14.8,6.7,5.7,-4.2,-9.1,56,43,27,30.56,30.21,19,8,31,0.00
2014-1-28,28.5,12.9,-0.9,4.4,-0.7,-5.2,84,58,26,30.61,30.42,9,2,17,0.00
2014-1-29,41.5,25.1,9.2,17.2,8.1,0.6,70,51,27,30.39,30.02,21,7,26,0.00
2014-1-30,45.2,38.0,31.2,23.6,15.1,10.5,59,39,33,29.98,29.72,19,10,38,0.00
2014-1-31,31.1,24.7,21.7,20.7,18.1,14.3,91,77,59,30.12,29.95,11,6,21,0.00